Weather History for Williams, AZ

Change the Weather History Date:

Sunday, February 23, 2014

  Actual Average (KFLG) Record (KFLG)
Temperature  
Mean Temperature 40 °F 33 °F  
Max Temperature 57 °F 46 °F 66 °F (1946)
Min Temperature 23 °F 20 °F -6 °F (1960)
Degree Days  
Heating Degree Days 25 32  
Month to date heating degree days 765  
Since 1 July heating degree days 4681  
Cooling Degree Days 0 0  
Month to date cooling degree days 0  
Year to date cooling degree days 0  
Moisture  
Dew Point 13 °F    
Average Humidity 39    
Maximum Humidity 68    
Minimum Humidity 17    
Precipitation  
Precipitation 0.00 in 0.08 in 0.62 in (1957)
Month to date precipitation 1.76  
Year to date precipitation 3.81  
Snow  
Snow 0.00 in 0.60 in 6.00 in (1948)
Month to date snowfall 17.5  
Since 1 July snowfall 69.8  
Snow Depth -    
Sea Level Pressure  
Sea Level Pressure 30.19 in    
Wind  
Wind Speed 8 mph (SSE)    
Max Wind Speed 16 mph    
Max Gust Speed 23 mph    
Visibility 10 miles    
Events      
T = Trace of Precipitation, MM = Missing Value Source: NWS Daily Summary

Daily Weather History Graph

Daily Weather History Graph

Search for Another Location

Airport:

Trip Planner

Search our weather history database for the weather conditions in past years. The results will help you decide how hot, cold, wet, or windy it might be!

Date:

Astronomy

Feb. 23, 2014 Rise Set
Actual Time 7:05 AM MST 6:18 PM MST
Civil Twilight 6:40 AM MST 6:44 PM MST
Nautical Twilight 6:10 AM MST 7:14 PM MST
Astronomical Twilight 5:41 AM MST 7:43 PM MST
Moon 2:01 AM MST (2/23) 12:31 PM MST (2/23)
Length of Visible Light 12h 04m
Length of Day
11h 13m
Last Quarter, 38% of the Moon is Illuminated
Feb 23
Last Quarter
Mar 1
New
Mar 8
First Quarter
Mar 16
Full
Mar 23
Last Quarter

Hourly Weather History & Observations

Time (MST) Temp. Windchill Dew Point Humidity Pressure Visibility Wind Dir Wind Speed Gust Speed Precip Events Conditions
12:15 AM 30.2 °F 23.4 °F 12.2 °F 47% 30.15 in 10.0 mi SE 6.9 mph - N/A   Clear
12:35 AM 28.4 °F 21.2 °F 12.2 °F 51% 30.15 in 10.0 mi SE 6.9 mph - N/A   Clear
12:55 AM 28.4 °F 19.7 °F 12.2 °F 51% 30.15 in 10.0 mi SE 9.2 mph - N/A   Clear
1:15 AM 28.4 °F 19.7 °F 12.2 °F 51% 30.15 in 10.0 mi SE 9.2 mph - N/A   Clear
1:35 AM 28.4 °F 19.7 °F 14.0 °F 55% 30.15 in 10.0 mi SE 9.2 mph - N/A   Clear
1:55 AM 26.6 °F 18.2 °F 14.0 °F 59% 30.16 in 10.0 mi SE 8.1 mph - N/A   Clear
2:15 AM 26.6 °F 17.5 °F 12.2 °F 55% 30.16 in 10.0 mi SE 9.2 mph - N/A   Clear
2:35 AM 26.6 °F 18.2 °F 14.0 °F 59% 30.15 in 10.0 mi SE 8.1 mph - N/A   Clear
2:55 AM 26.6 °F 18.2 °F 14.0 °F 59% 30.15 in 10.0 mi SE 8.1 mph - N/A   Clear
3:15 AM 24.8 °F 16.1 °F 12.2 °F 59% 30.15 in 10.0 mi SE 8.1 mph - N/A   Clear
3:35 AM 24.8 °F 16.1 °F 14.0 °F 64% 30.15 in 10.0 mi SE 8.1 mph - N/A   Clear
3:55 AM 24.8 °F 15.3 °F 14.0 °F 64% 30.15 in 10.0 mi SE 9.2 mph - N/A   Clear
4:15 AM 24.8 °F 15.3 °F 14.0 °F 64% 30.15 in 10.0 mi SE 9.2 mph - N/A   Clear
4:35 AM 24.8 °F 16.1 °F 14.0 °F 64% 30.15 in 10.0 mi SE 8.1 mph - N/A   Clear
4:55 AM 24.8 °F 16.1 °F 14.0 °F 64% 30.16 in 10.0 mi SE 8.1 mph - N/A   Clear
5:15 AM 23.0 °F 13.1 °F 14.0 °F 68% 30.16 in 10.0 mi SE 9.2 mph - N/A   Clear
5:35 AM 24.8 °F 14.6 °F 14.0 °F 64% 30.16 in 10.0 mi ESE 10.4 mph - N/A   Clear
5:55 AM 24.8 °F 14.0 °F 14.0 °F 64% 30.16 in 10.0 mi SE 11.5 mph - N/A   Clear
6:15 AM 24.8 °F 14.6 °F 14.0 °F 64% 30.17 in 10.0 mi SE 10.4 mph - N/A   Clear
6:35 AM 24.8 °F 14.0 °F 14.0 °F 64% 30.17 in 10.0 mi SE 11.5 mph - N/A   Clear
6:55 AM 23.0 °F 13.1 °F 14.0 °F 68% 30.18 in 10.0 mi SE 9.2 mph - N/A   Clear
7:15 AM 23.0 °F 13.1 °F 14.0 °F 68% 30.18 in 10.0 mi SE 9.2 mph - N/A   Clear
7:35 AM 23.0 °F 13.9 °F 14.0 °F 68% 30.19 in 10.0 mi SE 8.1 mph - N/A   Clear
7:55 AM 26.6 °F 17.5 °F 14.0 °F 59% 30.20 in 10.0 mi ESE 9.2 mph - N/A   Clear
8:15 AM 30.2 °F 21.9 °F 15.8 °F 55% 30.20 in 10.0 mi ESE 9.2 mph - N/A   Clear
8:35 AM 35.6 °F 29.2 °F 15.8 °F 44% 30.21 in 10.0 mi SE 8.1 mph - N/A   Clear
8:55 AM 39.2 °F 34.2 °F 15.8 °F 39% 30.21 in 10.0 mi SE 6.9 mph - N/A   Clear
9:15 AM 44.6 °F 42.2 °F 15.8 °F 31% 30.21 in 10.0 mi SE 4.6 mph - N/A   Clear
9:35 AM 48.2 °F - 14.0 °F 25% 30.22 in 10.0 mi ESE 3.5 mph - N/A   Clear
9:55 AM 48.2 °F - 14.0 °F 25% 30.22 in 10.0 mi Calm Calm - N/A   Clear
10:15 AM 50.0 °F - 14.0 °F 24% 30.21 in 10.0 mi SE 5.8 mph - N/A   Clear
10:35 AM 51.8 °F - 14.0 °F 22% 30.22 in 10.0 mi SE 5.8 mph - N/A   Clear
10:55 AM 53.6 °F - 14.0 °F 21% 30.21 in 10.0 mi SSW 4.6 mph - N/A   Clear
11:15 AM 53.6 °F - 14.0 °F 21% 30.21 in 10.0 mi Calm Calm - N/A   Clear
11:35 AM 55.4 °F - 14.0 °F 20% 30.21 in 10.0 mi SSE 3.5 mph - N/A   Clear
11:55 AM 55.4 °F - 12.2 °F 18% 30.21 in 10.0 mi Calm Calm - N/A   Clear
12:15 PM 55.4 °F - 10.4 °F 17% 30.21 in 10.0 mi South 12.7 mph 16.1 mph N/A   Clear
12:35 PM 55.4 °F - 10.4 °F 17% 30.20 in 10.0 mi SW 10.4 mph 16.1 mph N/A   Clear
12:55 PM 55.4 °F - 12.2 °F 18% 30.20 in 10.0 mi WSW 12.7 mph 19.6 mph N/A   Clear
1:15 PM 55.4 °F - 12.2 °F 18% 30.19 in 10.0 mi SW 16.1 mph 19.6 mph N/A   Clear
1:35 PM 57.2 °F - 12.2 °F 17% 30.19 in 10.0 mi SW 13.8 mph 17.3 mph N/A   Clear
1:55 PM 57.2 °F - 12.2 °F 17% 30.19 in 10.0 mi West 9.2 mph 18.4 mph N/A   Clear
2:15 PM 57.2 °F - 12.2 °F 17% 30.18 in 10.0 mi SSW 10.4 mph - N/A   Clear
2:35 PM 57.2 °F - 12.2 °F 17% 30.18 in 10.0 mi SSW 15.0 mph 18.4 mph N/A   Clear
2:55 PM 57.2 °F - 12.2 °F 17% 30.18 in 10.0 mi SSW 12.7 mph 17.3 mph N/A   Clear
3:15 PM 57.2 °F - 12.2 °F 17% 30.17 in 10.0 mi SW 13.8 mph 21.9 mph N/A   Clear
3:35 PM 57.2 °F - 12.2 °F 17% 30.17 in 10.0 mi SW 13.8 mph 20.7 mph N/A   Clear
3:55 PM 57.2 °F - 12.2 °F 17% 30.17 in 10.0 mi SSW 6.9 mph 17.3 mph N/A   Clear
4:15 PM 55.4 °F - 10.4 °F 17% 30.16 in 10.0 mi SSW 6.9 mph 23.0 mph N/A   Clear
4:35 PM 57.2 °F - 12.2 °F 17% 30.16 in 10.0 mi SW 10.4 mph - N/A   Clear
4:55 PM 55.4 °F - 12.2 °F 18% 30.16 in 10.0 mi South 6.9 mph 18.4 mph N/A   Clear
5:15 PM 55.4 °F - 12.2 °F 18% 30.16 in 10.0 mi SW 6.9 mph - N/A   Clear
5:35 PM 53.6 °F - 12.2 °F 19% 30.16 in 10.0 mi SW 9.2 mph 17.3 mph N/A   Clear
5:55 PM 53.6 °F - 14.0 °F 21% 30.17 in 10.0 mi SW 8.1 mph - N/A   Clear
6:15 PM 50.0 °F - 12.2 °F 22% 30.17 in 10.0 mi SW 6.9 mph - N/A   Clear
6:35 PM 48.2 °F - 12.2 °F 24% 30.18 in 10.0 mi SSW 5.8 mph - N/A   Clear
6:55 PM 46.4 °F 43.5 °F 12.2 °F 25% 30.18 in 10.0 mi SSW 5.8 mph - N/A   Clear
7:15 PM 44.6 °F 40.2 °F 12.2 °F 27% 30.19 in 10.0 mi South 8.1 mph - N/A   Clear
7:35 PM 44.6 °F 40.2 °F 12.2 °F 27% 30.20 in 10.0 mi South 8.1 mph - N/A   Clear
7:55 PM 44.6 °F 40.2 °F 12.2 °F 27% 30.20 in 10.0 mi South 8.1 mph - N/A   Clear
8:15 PM 37.4 °F 33.8 °F 12.2 °F 36% 30.20 in 10.0 mi SSE 4.6 mph - N/A   Clear
8:35 PM 35.6 °F - 14.0 °F 41% 30.20 in 10.0 mi Calm Calm - N/A   Clear
8:55 PM 33.8 °F 27.7 °F 14.0 °F 44% 30.21 in 10.0 mi SE 6.9 mph - N/A   Clear
9:15 PM 32.0 °F 27.5 °F 14.0 °F 48% 30.22 in 10.0 mi SSE 4.6 mph - N/A   Clear
9:35 PM 32.0 °F 25.6 °F 14.0 °F 48% 30.22 in 10.0 mi SSE 6.9 mph - N/A   Clear
9:55 PM 32.0 °F 26.4 °F 14.0 °F 48% 30.22 in 10.0 mi South 5.8 mph - N/A   Clear
10:15 PM 32.0 °F 26.4 °F 14.0 °F 48% 30.23 in 10.0 mi SSE 5.8 mph - N/A   Clear
10:35 PM 32.0 °F 27.5 °F 14.0 °F 48% 30.23 in 10.0 mi SE 4.6 mph - N/A   Clear
10:55 PM 32.0 °F 27.5 °F 14.0 °F 48% 30.23 in 10.0 mi SE 4.6 mph - N/A   Clear
11:15 PM 32.0 °F 24.8 °F 14.0 °F 48% 30.23 in 10.0 mi SE 8.1 mph - N/A   Clear
11:35 PM 30.2 °F 21.9 °F 14.0 °F 51% 30.23 in 10.0 mi SE 9.2 mph - N/A   Clear
11:55 PM 28.4 °F 19.7 °F 14.0 °F 55% 30.23 in 10.0 mi SE 9.2 mph - N/A   Clear